Location: Stamford Observatory
(41.1241°N, 73.5498°W)
Time: 08:32:07
(UTC-05:00)

Daily predictions for brighter satellites

Satellite Brightness Start Highest point End
(mag) Time Altitude Azimuth Time Altitude Azimuth Time Altitude Azimuth
Cosmos 2341 Rocket 4.4 17:23:47 10° NNW 17:30:02 72° W 17:36:19 10° S
SL-24 R/B - RUBIN 2 3.5 17:25:44 10° NNW 17:30:14 68° NE 17:34:30 10° SE
Cosmos 1656 Rocket 3.7 17:25:42 10° NNW 17:31:09 62° ENE 17:36:38 10° SE
ERBS 4.3 17:30:11 10° N 17:32:00 14° NNE 17:33:49 10° ENE
CORIOLIS 4.2 17:26:55 10° SSE 17:32:16 85° ENE 17:37:38 10° NNW
Cosmos 2151 4.4 17:30:09 10° SE 17:33:10 19° E 17:36:11 10° NE
ALOS 2.7 17:33:43 10° SE 17:38:02 38° ENE 17:42:21 10° N
EO 1 Del DPAF 4.5 17:35:16 10° NE 17:38:22 23° E 17:41:27 10° SSE
Cosmos 1328 3.8 17:38:59 10° S 17:42:58 73° E 17:47:00 10° NNE
MTI 4.5 17:40:19 10° NNE 17:43:15 33° E 17:46:10 10° SSE
ERS-2 3.4 17:41:06 10° ESE 17:43:51 20° ENE 17:46:37 10° NNE
Cosmos 1943 Rocket 3.6 17:39:10 10° NW 17:44:25 43° WSW 17:49:35 10° S
CZ-4C R/B 3.9 17:43:10 10° ESE 17:44:35 11° ESE 17:46:03 10° E
CSL-04 Rocket 4.5 17:39:31 10° S 17:44:58 59° WSW 17:50:25 10° NNW
Cosmos 1777 Rocket 4.0 17:40:58 10° NNW 17:46:12 67° ENE 17:51:25 10° SSE
Cosmos 1400 Rocket 4.3 17:43:22 10° SSW 17:47:13 40° WNW 17:51:07 10° N
Cosmos 1408 Rocket 3.5 17:43:19 10° S 17:47:33 63° E 17:51:49 10° NNE
Cosmos 1515 Rocket 4.4 17:45:39 10° NNE 17:49:25 28° ENE 17:53:09 10° SE
Cosmos 1076 Rocket 4.3 17:45:28 10° SSW 17:49:45 56° W 17:54:04 10° N
Cosmos 1300 3.5 17:46:18 10° NNW 17:50:04 57° W 17:53:49 10° S
IRS-1A Rocket 4.3 17:46:26 10° SSE 17:51:59 85° ENE 17:57:40 10° NNW
MONITOR-E 4.3 17:51:55 10° SSE 17:54:51 48° ENE 17:57:49 10° N
Cosmos 1340 4.2 17:53:15 10° NNE 17:55:37 16° ENE 17:56:08 15° E
SPOT 3 Rocket 3.7 17:51:43 10° SE 17:56:37 47° ENE 18:01:34 10° N
Tiangong 1 1.9 17:56:27 10° W 17:58:47 36° SSW 18:01:04 10° SE
Lacrosse 5 3.4 17:56:09 10° SSE 17:59:37 19° ESE 18:01:41 15° E
Cosmos 1703 3.5 17:55:51 10° SSE 17:59:40 49° E 18:03:33 10° NNE
COSMO-SKYMED 1 2.5 17:56:39 10° NNE 18:01:02 78° ESE 18:05:21 10° S
Geosat 4.5 17:56:20 10° NNE 18:01:19 62° WNW 18:06:15 10° SW
Cosmos 1500 Rocket 4.2 17:57:34 10° SSE 18:01:34 33° E 18:05:35 10° NNE
CZ-2C R/B 4.1 17:58:45 10° N 18:03:26 70° WNW 18:08:00 10° SSW
FENGYUN 3A 3.6 17:59:31 10° SSE 18:04:49 70° ENE 18:10:11 10° N
BREEZE-M DEB (TANK) 2.7 18:00:15 10° WSW 18:05:10 48° NNW 18:06:52 18° NE
MOS 1 4.2 17:59:50 10° SSE 18:05:27 74° ENE 18:11:06 10° N
SeaSat 1 4.5 18:03:32 10° S 18:07:55 32° WSW 18:12:20 10° NW
USA 81 4.4 18:03:32 10° SSE 18:08:27 42° E 18:13:23 10° NNE
Meteor 2-2 Rocket 4.4 18:03:59 10° NNW 18:09:42 77° W 18:15:19 10° S
NOSS 3-4 (A) 4.1 18:09:09 10° NW 18:16:14 74° WSW 18:23:49 10° SSE
NOSS 3-4 (C) 4.1 18:09:14 10° NW 18:16:20 75° WSW 18:23:56 10° SSE
Cosmos 1898 Rocket 4.4 18:12:13 10° N 18:16:44 27° ENE 18:18:55 21° E
Cosmos 1743 Rocket 3.5 18:12:34 10° S 18:16:53 64° E 18:21:11 10° NNE
Cosmos 44 4.4 18:14:34 10° WSW 18:18:33 35° NW 18:22:41 10° NNE
Cosmos 1328 Rocket 3.4 18:14:17 10° N 18:18:41 87° E 18:23:00 10° S
TIMED 4.4 18:18:29 10° NNW 18:22:53 82° ENE 18:27:14 10° SSE
Cosmos 2228 Rocket 3.0 18:18:33 10° N 18:23:08 73° E 18:27:43 10° SSE
Cosmos 371 Rocket 3.2 18:20:44 10° S 18:25:30 71° ESE 18:29:49 13° NNE
Cosmos 2082 Rocket 3.9 18:23:01 10° SE 18:24:47 15° ESE 18:24:47 15° ESE
ISS -1.7 18:29:51 10° S 18:31:12 16° SSE 18:31:12 16° SSE
Cosmos 2098 Rocket 4.1 18:27:58 10° N 18:33:33 78° W 18:40:24 10° S
PKM 3.7 18:31:05 10° NW 18:33:49 63° NE 18:35:47 28° ESE
Envisat 4.1 18:36:31 24° NE 18:36:31 24° NE 18:39:22 10° N
Cosmos 2278 4.5 18:32:02 10° N 18:36:59 29° NE 18:37:11 29° ENE
Cosmos 2058 3.2 18:35:40 10° SSW 18:39:49 69° W 18:44:01 10° N
H-2A R/B 2.6 18:40:07 10° SSE 18:43:56 89° ENE 18:47:49 10° NNW
Cosmos 1570 Rocket 3.9 18:39:05 10° SSW 18:44:23 83° ESE 18:48:25 18° NNE
COSMOS 2406 3.7 18:41:31 10° SW 18:47:11 61° WNW 18:52:43 11° NNE
Cosmos 1455 2.8 18:43:24 10° NNW 18:47:11 56° W 18:50:54 10° S
Cosmos 1151 Rocket 3.2 18:42:58 10° NNW 18:47:21 72° W 18:51:42 10° S
GEOS 3 Rocket 4.1 18:47:06 37° ENE 18:47:54 40° NE 18:52:53 10° NNW
Cosmos 1833 Rocket 3.9 18:44:21 10° SSE 18:47:19 24° SE 18:47:19 24° SE
Cosmos 1821 Rocket 3.9 18:43:35 10° N 18:49:47 80° E 18:56:02 10° S
Cosmos 1535 Rocket 4.3 18:45:24 10° N 18:51:32 70° E 18:57:35 10° SSE
Cosmos 2369 4.1 18:46:58 10° N 18:52:22 41° ENE 18:52:29 40° ENE
Cosmos 1656 4.3 18:50:33 10° N 18:54:46 35° NE 18:54:46 35° NE
Cosmos 1697 Rocket 4.0 18:56:13 10° N 18:59:05 23° NNE 18:59:05 23° NNE
SL-27 R/B 3.7 18:58:56 10° SSW 19:00:56 33° SSW 19:00:56 33° SSW
RESURS DK-1 4.1 18:58:36 10° NNW 19:00:13 21° N 19:00:13 21° N
FengYun 1-2 T 4.4 18:57:39 10° S 19:03:16 75° WSW 19:08:53 10° NNW
Cosmos 1937 Rocket 4.0 19:02:17 10° N 19:06:17 44° NNE 19:06:17 44° NNE
ERBS 4.0 19:05:39 10° NW 19:07:28 29° NW 19:07:28 29° NW
Meteor 2-10 Rocket 4.1 19:08:18 10° N 19:11:38 40° N 19:11:38 40° N
Thor Agena Rocket 3.4 19:12:21 41° NNE 19:14:14 87° ESE 19:19:26 10° SSW
Cosmos 304 Rocket 4.0 19:10:22 10° S 19:14:11 55° S 19:14:11 55° S
ERS-2 4.4 19:14:15 10° SSW 19:17:21 26° W 19:20:30 10° NW
Cosmos 1934 Rocket 4.1 19:17:36 10° N 19:23:59 77° W 19:30:20 10° S
Cosmos 1340 4.4 19:28:00 10° NNW 19:36:56 - SSW 19:31:20 31° W
CZ-4C R/B 2.1 19:26:44 10° SSW 19:31:21 74° SW 19:31:21 74° SW
Cosmos 1605 Rocket 3.8 19:26:19 10° N 19:32:29 85° E 19:32:52 79° SSE
Lacrosse 5 2.5 19:37:00 10° SW 19:40:56 52° WSW 19:40:56 52° WSW
Cosmos 1980 Rocket 4.4 19:55:06 10° NNW 19:55:59 15° N 19:55:59 15° N
Cosmos 2082 Rocket 3.8 20:04:19 10° SSW 20:06:43 26° SW 20:06:43 26° SW
